OBJECT D, 60015

Orbit data source: Space-Track

You're viewing an Uncataloged Satellite

Recently launched and/or uncataloged satellites may have evolving metadata. Metadata may include but not limited to: Owner, Maufacturer, Bus, Motor, and Mission.

OBJECT D, 60015 is a satellite owned by Xinghe Dongli (CN) in SSO that was launched on Thu, 06 Jun 2024 UTC via a GUSHENXING 1 launch vehicle from the Jiuquan Satellite Launch Center, China (JSC). Unknown objects in Earth's orbit typically refer to objects detected orbiting the Earth but have not yet been identified or cataloged. These objects could be anything from previously untracked satellites, spent rocket stages, debris from satellite collisions, or even natural meteoroids temporarily captured by Earth's gravity.

Loading next visibility...
Identifier
60015, 2024-110D
Orbit
SSO
Country
Flag of CNCN / PRC
Related business
Flag of CNGalactic Energy Co. (CN)
Manufacturer
Xinghe Dongli
Mission
Commercial Technology
Bus & Motor
LSP, EDGE
Mass
20 kg wet, 20 kg dry
Launch date (UTC)
2024-06-06 (1 year ago)
Launch vehicle
GUSHENXING 1
Launch site
Jiuquan Satellite Launch Center, China (JSC)
Object type
Unknown
Shape & HBR
Box, 0.2 m
Radar Cross Section
0.240 m², Medium (>0.1 m² and < 1m²)

Expand to show TLE details & history
Last TLE update: 6 hours ago

TLE from 6 hours ago
0 OBJECT D
1 60015U 24110D   25296.18559506  .00013694  00000-0  64839-3 0  9999
2 60015  97.5810  26.6504 0010775   6.7813 353.3565 15.19409186 76201
Epoch: 2025-10-23T04:27Z
TLE epoch observation values (Epoch: 2025-10-23T04:27:15.413Z)
Latitude
-0.00001°
Longitude
-72.01229°
Altitude
503.338 km
Speed
7.617 km/s
True Right ascension
01h 46m 36s
True Declination
0° 00' 00"
Sunlit
Object was in full shadow at epoch
Visualization orbit readout
Latitude
Unknown
Longitude
Unknown
Altitude
Unknown
Speed
Unknown
Apparent Right ascension
Unknown
Apparent Declination
Unknown
Sunlit
N/A
Visualization observer readout
Local Sidereal Time
05:40:48
Azimuth
Unknown
Elevation
Unknown
Doppler factor
Unknown
Orbital elements
Apogee altitude
512.015 km
Perigee altitude
497.183 km
Semi-major axis
6,882.736 km
Eccentricity
0.00108
Inclination
97.581°
RAAN
26.6504°
Arg. of periapsis
6.7813°
True anomaly
353.3422°
Mean anomaly
353.3565°
Eccentric anomaly
353.34935°
Mean motion
3.80103 °/min
Orbital period
94.71 mins
BSTAR
0.00064839
Loading maneuver chart data...
Computing Atmospheric mass density...
Loading historical data...
Loading historical data...
Loading historical data...
Loading historical data...
Loading historical data...
Loading historical data...
Loading historical data...
Other satellites on launch #110 in the year 2024 (2024-06-06 UTC)

Documentation

Showing up to 5 results
|